1176020384,263.144
1176060814,263.144
1176395720,257.702
1176484448,265.124
1176542196,265.652
1176625987,265.652
1176733806,265.652
1176846913,257.527
1176959850,261.727
1176959968,261.727
1177048549,260.739
1177140882,271.185
1177238397,263.05
1177238785,263.05
1177272333,263.05
1177309470,263.05
1177485831,264.143
1177552871,260.488
1177622116,257.138
1177650613,260.337
1177655073,260.337
1177693814,257.127
1177737014,251.626
1177780225,254.636
1177804258,251.436
1177823414,251.436
1177845013,251.436
1177866615,255.928
1177888216,252.428
1177909813,252.428
1177931414,252.428
1177953015,252.028
1178039414,245.738
1178061016,243.838
1178082614,251.238
1178104214,251.238
1178125815,244.084
1178147416,245.409
1178169015,250.409
1178190613,250.409
1178233827,245.309
1178255415,250.409
1178277014,250.409
1178298615,250.309
1178341814,245.109
1178363414,245.109
1178442011,245.109
1178442085,245.109
1178449814,245.109
1178471414,249.908
1178493014,249.908
1178514627,249.908
1178536214,249.908
1178557815,245.109
1178579416,242.709
1178601015,250.118
1178622614,250.118
1178644215,250.118
1178665820,245.329
1178679219,247.602
1178687416,247.602
1178709014,247.602
1178730646,247.602
1178752223,243.729
1178773817,246.002
1178795414,246.002
1178817015,243.728
1178838630,243.428
1178860214,246.373
1178881816,241.599
1178903416,237.199
1178925016,237.199
1178946614,239.499
1178968215,239.499
1178989815,239.499
1179011434,237.099
1179033015,237.099
1179054618,239.499
1179076215,239.499
1179097815,237.099
1179119416,241.399
1179141015,244.1
1179162615,244.1
1179184246,237.584
1179205816,241.484
1179227415,241.284
1179249017,239.284
1179270638,237.684
1179292214,239.684
1179313814,239.584
1179335416,237.083
1179357014,236.783
1179378615,238.899
1179400214,238.899
1179421815,236.398
1179443417,239.5
1179465014,239.699
1179486614,239.699
1179508215,236.153
1179529828,234.768
1179551418,236.909
1179573015,235.862
1179594658,235.862
1179616214,235.262
1179637814,235.262
1179659416,235.262
1179681024,237.752
1179702615,232.753
1179724221,232.753
1179745816,235.253
1179767416,231.643
1179789014,235.542
1179810614,236.043
1179832215,235.671
1179853820,235.772
1179875510,235.171
1179897015,238.371
1179918614,238.371
1179940215,238.371
1179961819,233.67
1179983415,232.958
1180005013,236.058
1180026616,236.058
1180048214,232.858
1180069814,235.958
1180091415,235.958
1180113017,232.858
1180134615,234.173
1180156217,233.572
1180177818,233.373
1180199415,233.373
1180221026,233.373
1180242616,235.273
1180264215,235.273
1180285814,235.273
1180307415,239.974
1180329014,239.974
1180350614,239.974
1180372215,236.574
1180393816,240.274
1180415416,238.274
1180437017,238.274
1180458617,235.274
1180480216,235.274
1180501816,233.985
1180523418,233.985
1180545021,229.585
1180566616,229.585
1180588214,229.685
1180609893,232.685
1180631432,233.786
1180653028,233.786
1180674615,233.786
1180696219,234.786
1180717815,232.286
1180739415,234.187
1180761014,236.787
1180782615,237.187
1180804226,237.187
1180825815,238.987
1180847415,238.987
1180869014,238.987
1180890618,238.987
1180912215,238.987
1180933815,238.987
1180955414,238.487
1180977015,238.487
1180998615,235.387
1181020222,235.887
1181041816,238.987
1181063414,235.887
1181085014,231.086
1181106616,234.174
1181128215,234.283
1181149826,235.684
1181171426,235.684
1181193016,235.684
1181214616,237.984
1181236215,235.684
1181257815,235.684
1181279415,237.534
1181301015,237.534
1181322624,237.534
1181344222,236.784
1181365815,236.784
1181387416,237.727
1181409020,237.034
1181430616,237.034
1181452216,237.034
1181473816,237.034
1181495417,237.034
1181517016,237.034
1181538617,237.034
1181560216,237.034
1181581816,236.234
1181603414,235.284
1181625017,236.234
1181646617,236.234
1181668216,232.834
1181689816,232.834
1181711415,232.834
1181733016,236.234
1181754619,233.493
1181776215,232.745
1181797813,232.745
1181819415,232.745
1181841020,232.197
1181862616,229.247
1181884215,236.946
1181905815,236.946
1181927417,229.897
1181949018,229.897
1181970615,229.897
1181992216,229.897
1182013816,231.298
1182035418,231.298
1182078617,231.298
1182121814,231.298
1182143415,230.699
1182165024,230.699
1182186616,228.898
1182208218,224.741
1182229821,224.541
1182251425,227.498
1182273020,225.141
1182294619,227.899
1182316218,225.659
1182337817,227.899
1182359416,222.741
1182381017,221.149
1182402616,226.499
1182424216,227.299
1182445817,222.7
1182467422,220.751
1182489019,230.691
1182510616,230.691
1182532216,222.291
1182553817,221.991
1182575417,230.691
1182597016,230.691
1182618619,231.19
1182640217,220.191
1182661816,220.191
1182683415,228.091
1182705017,228.091
1182726616,219.891
1182748219,219.891
1182769819,227.691
1182791417,219.891
1182813017,219.891
1182834616,219.891
1182856216,219.891
1182877817,220.291
1182899427,218.787
1182921015,220.085
1182942615,220.085
1182964217,215.587
1182985817,214.986
1183007418,214.986
1183029017,218.785
1183050619,217.286
1183072217,214.787
1183094042,218.585
1183115416,218.485
1183137017,223.987
1183158617,216.187
1183180215,223.787
1183201817,223.787
1183223419,218.285
1183245022,213.987
1183266616,218.285
1183288217,218.285
1183309820,213.887
1183331416,213.887
1183353015,213.887
1183374616,217.886
1183396223,213.287
1183417818,213.442
1183439418,217.041
1183461017,218.341
1183482617,214.043
1183504218,214.043
1183525817,213.641
1183547416,214.1
1183569021,211
1183590616,211
1183612220,214.1
1183633819,213.9
1183655416,210.8
1183677016,213.9
1183698618,213.9
1183720218,213.9
1183741817,213.9
1183763416,209.941
1183785016,213.041
1183806616,213.041
1183828217,213.041
1183849817,213.041
1183871418,209.941
1183893016,213.041
1183914617,213.041
1183936215,209.941
1183957816,209.941
1183979416,212.841
1184001016,209.741
1184022675,210.2
1184044216,213.5
1184065816,214.899
1184087416,208.5
1184109015,208.5
1184130617,211.699
1184152218,211.699
1184173819,207.349
1184195417,206.248
1184217017,208.049
1184238616,208.347
1184260217,203.898
1184281816,203.898
1184303416,202.998
1184325040,204.686
1184346616,201.487
1184368218,200.837
1184389818,203.036
1184411415,203.036
1184433017,202.936
1184454616,202.936
1184476217,202.936
1184497816,202.936
1184519417,202.936
1184541018,202.936
1184562616,202.936
1184584218,202.936
1184605816,202.936
1184627423,199.649
1184649017,199.649
1184670616,202.936
1184692216,199.257
1184713816,199.257
1184735416,199.299
1184757018,202.898
1184778619,200.299
1184800218,200.599
1184821816,203.898
1184843424,202.898
1184865019,199.799
1184886621,199.799
1184908220,199.799
1184929820,202.448
1184951418,199.349
1184973018,197.749
1184994618,201.948
1185016218,202.048
1185037823,197.849
1185059424,202.048
1185081020,197.849
1185102618,202.048
1185124220,202.048
1185145819,197.849
1185167418,202.048
1185189024,202.048
1185210620,201.448
1185232222,198.548
1185253818,201.648
1185275418,202.248
1185297018,201.648
1185318624,199.898
1185340222,203.097
1185361820,203.997
1185383421,200.898
1185405019,199.598
1185426837,199.298
1185448219,205.293
1185469817,198.098
1185491419,197.699
1185513019,197.699
1185534619,205.434
1185556218,197.34
1185577819,197.728
1185599423,197.628
1185621020,205.134
1185642620,205.837
1185664219,205.134
1185685818,205.134
1185707420,205.134
1185729017,205.134
1185750619,205.134
1185772220,205.134
1185793821,205.134
1185815420,204.934
1185837018,198.641
1185858670,206.838
1185880218,208.057
1185901819,206.438
1185923420,199.136
1185945023,204.541
1185966619,204.533
1185988221,197.239
1186009819,198.639
1186031418,200.638
1186053023,200.638
1186074623,196.439
1186096222,196.439
1186117823,200.982
1186139418,200.982
1186161031,196.983
1186182620,196.983
1186204219,196.583
1186225818,196.583
1186247420,202.083
1186269018,202.083
1186290618,202.083
1186312218,202.083
1186333820,202.083
1186355418,202.083
1186377019,202.083
1186398617,202.083
1186420250,194.882
1186441818,192.283
1186463417,192.283
1186485019,201.022
1186506618,199.222
1186528235,191.383
1186549818,199.222
1186571418,199.878
1186593018,197.783
1186614618,190.639
1186636219,190.639
1186657818,196.782
1186679418,196.782
1186701028,191.039
1186722621,190.539
1186744217,197.682
1186765820,196.682
1186787419,190.339
1186809018,190.439
1186830617,197.523
1186852225,197.523
1186873821,190.939
1186895418,190.939
1186917018,197.523
1186938624,197.523
1186960219,190.939
1186981818,190.939
1187003420,196.123
1187025020,189.439
1187046621,189.239
1187068218,189.239
1187089817,195.278
1187111418,194.978
1187133020,189.739
1187154620,190.798
1187176218,198.441
1187197819,190.698
1187219421,190.698
1187241017,190.04
1187262618,197.983
1187284220,190.04
1187305820,190.04
1187327419,198.037
1187349018,191.039
1187370617,199.379
1187392218,192.24
1187413818,192.24
1187435418,201.275
1187457020,201.275
1187478618,192.981
1187500219,192.981
1187521817,201.275
1187543419,201.275
1187565019,192.882
1187586618,192.882
1187608217,201.176
1187629818,199.18
1187651423,193.741
1187673018,199.18
1187694617,201.176
1187716217,194.34
1187737819,192.59
1187759420,190.89
1187781017,198.53
1187802617,197.13
1187824220,194.04
1187845820,197.882
1187867420,208.295
1187889019,195.54
1187910619,198.381
1187932219,198.04
1187953818,204.753
1187975421,196.14
1187997019,194.491
1188018631,196.69
1188040218,195.99
1188061818,196.689
1188083421,196.689
1188105017,196.689
1188126619,196.589
1188148230,198.489
1188169818,198.489
1188191419,198.485
1188213018,200.785
1188234618,199.186
1188256221,196.092
1188277819,196.991
1188299418,201.609
1188321019,199.435
1188342620,196.136
1188364226,197.061
1188385819,196.561
1188407421,196.551
1188429019,193.766
1188450621,193.766
1188472218,193.766
1188493819,192.262
1188515421,191.686
1188537019,191.686
1188558618,197.05
1188580218,188.486
1188601819,188.785
1188623419,188.785
1188645019,188.785
1188666618,189.94
1188688220,189.923
1188709819,189.923
1188731418,189.923
1188753019,189.923
1188774619,189.923
1188796219,189.923
1188817819,189.923
1188839419,191.698
1188861021,192.141
1188882619,192.141
1188904218,192.141
1188925819,192.141
1188947419,192.141
1188969018,192.999
1188990620,192.999
1189012219,193.199
1189033821,190.066
1189055420,193.399
1189077018,193.399
1189098618,190.425
1189120224,190.425
1189141818,190.425
1189163419,190.425
1189185017,191.859
1189206639,188.726
1189228221,190.983
1189249818,190.983
1189271419,190.543
1189293018,190.543
1189314618,190.543
1189336218,190.543
1189357844,191.642
1189379418,191.642
1189401018,191.642
1189422618,191.642
1189444218,194.131
1189465818,188.226
1189487417,188.226
1189509018,189.374
1189530617,188.375
1189552218,187.275
1189573819,178.376
1189595418,191.516
1189617017,189.016
1189638619,186.076
1189660218,189.675
1189681817,189.675
1189703418,186.999
1189725018,186.999
1189746618,186.795
1189768218,190.736
1189789818,185.495
1189811418,185.296
1189833019,186.795
1189854619,186.795
1189876219,187.795
1189897820,187.795
1189919418,187.795
1189941018,187.795
1189962618,187.795
1189984225,187.795
1190005819,187.795
1190027417,187.795
1190049022,186.795
1190070619,185.296
1190092219,185.296
1190113819,186.335
1190135420,183.134
1190157022,182.635
1190178617,182.635
1190200218,182.635
1190221819,182.635
1190243428,182.635
1190265019,182.635
1190286618,182.635
1190308219,186.135
1190329829,187.234
1190351420,185.634
1190373018,185.534
1190394620,185.534
1190416218,183.235
1190437823,185.691
1190459417,181.033
1190481021,181.033
1190502619,182.132
1190524220,183.431
1190545819,183.431
1190567420,182.132
1190589021,183.431
1190610620,181.033
1190632218,183.332
1190653821,183.332
1190675427,180.734
1190697024,176.439
1190718618,184.632
1190740219,181.393
1190761819,181.345
1190783424,179.185
1190805017,183.543
1190826618,179.085
1190848218,179.784
1190869874,180.343
1190891418,179.284
1190913020,179.284
1190934621,178.885
1190956220,182.783
1190977819,182.783
1190999420,182.783
1191021020,178.385
1191042621,182.783
1191064224,179.984
1191085818,179.984
1191107418,179.984
1191129021,183.384
1191150617,178.884
1191172230,178.884
1191193825,181.685
1191215421,181.685
1191237018,185.185
1191258620,185.185
1191280220,179.39
1191301820,183.034
1191323418,183.435
1191345019,179.145
1191366622,179.245
1191388219,175.745
1191409819,175.745
1191431424,175.245
1191453018,175.245
1191474621,172.347
1191496219,172.347
1191517829,172.347
1191539418,170.997
1191561019,170.997
1191582618,170.997
1191604220,168.493
1191625819,168.493
1191647420,168.792
1191669017,168.792
1191690620,168.792
1191712219,168.238
1191733819,168.238
1191755418,168.238
1191777018,168.238
1191798619,170.442
1191820225,170.442
1191841820,170.442
1191863418,170.143
1191885020,167.942
1191906617,170.737
1191928219,173.342
1191949818,170.342
1191971426,169.643
1191993017,166.743
1192014618,168.238
1192036226,168.038
1192057822,168.338
1192079416,166.237
1192101016,171.736
1192122618,168.337
1192144219,169.637
1192165818,169.637
1192187418,172.032
1192209020,167.933
1192230617,170.337
1192252218,170.738
1192273817,170.738
1192295418,170.738
1192317021,169.838
1192338622,169.838
1192360218,168.038
1192381823,168.038
1192403419,168.038
1192425026,169.638
1192446618,169.638
1192468221,169.638
1192489826,168.138
1192511417,169.338
1192533019,168.637
1192554619,168.637
1192576218,166.743
1192597818,168.638
1192619418,168.638
1192641016,166.743
1192662623,169.143
1192684219,171.738
1192705817,171.738
1192727418,169.143
1192749019,169.343
1192770619,171.738
1192792220,167.743
1192813818,167.448
1192835419,167.448
1192857025,169.243
1192878619,166.838
1192900219,166.838
1192921819,169.243
1192943421,169.638
1192965017,169.638
1192986625,169.638
1193008227,169.638
1193029820,169.638
1193051419,169.638
1193073019,167.348
1193094621,167.548
1193116219,169.738
1193137819,168.943
1193159423,166.198
1193181018,166.198
1193202618,168.193
1193224218,168.193
1193245821,166.192
1193267419,165.992
1193289016,166.997
1193310618,164.792
1193332216,163.693
1193353829,163.393
1193375418,165.387
1193397018,165.087
1193418618,165.087
1193440234,164.193
1193461822,172.287
1193483418,171.292
1193505105,171.292
1193526634,171.292
1193548218,171.292
1193569818,171.292
1193591418,171.292
1193613030,171.292
1193634618,171.292
1193656218,171.292
1193677824,169.892
1193699423,169.892
1193721019,171.028
1193742618,171.028
1193764216,171.028
1193785819,169.433
1193807418,171.028
1193829018,169.523
1193850634,167.928
1193872220,169.928
1193893818,169.928
1193915418,169.928
1193937019,169.923
1193958620,169.923
1193980219,169.923
1194001817,169.923
1194023418,167.907
1194045026,167.907
1194066619,167.907
1194088218,167.907
1194109827,172.249
1194131423,172.249
1194153017,172.249
1194178219,172.249
1194199819,172.149
1194221425,172.149
1194243018,172.149
1194264617,172.149
1194286223,171.072
1194307853,169.571
1194329422,169.571
1194351018,169.571
1194372618,164.622
1194394227,164.827
1194415821,169.191
1194437418,169.191
1194459019,163.803
1194480623,163.803
1194502219,163.803
1194523819,163.803
1194545418,163.803
1194567018,167.747
1194588618,167.397
1194610218,170.247
1194631822,165.443
1194653420,166.443
1194675018,173.242
1194696618,176.706
1194718224,176.706
1194739819,176.706
1194761418,176.706
1194783019,176.706
1194804620,168.629
1194826238,166.529
1194847820,166.529
1194869418,166.529
1194891029,173.527
1194912634,166.528
1194934218,169.628
1194955818,169.628
1194977420,167.228
1194999035,169.828
1195020626,169.828
1195042219,169.651
1195063817,165.947
1195085451,165.053
1195107023,165.053
1195128618,165.968
1195150221,164.869
1195171836,164.569
1195193432,165.947
1195215021,166.797
1195236618,163.998
1195258226,163.998
1195279833,165.701
1195301419,165.701
1195323021,165.201
1195344620,165.201
1195799214,168.635
1195819818,168.635
1195841426,162.54
1195863019,167.135
1195884619,169.186
1195906218,169.186
1195927820,168.287
1195949419,168.287
1195971018,168.287
1195992617,168.287
1196014220,168.287
1196035819,168.287
1196057422,168.287
1196079018,168.287
1196100622,164.992
1196122219,164.992
1196143820,172.186
1196165423,164.841
1196187019,164.841
1196208622,172.035
1196230220,168.136
1196251816,168.136
1196273418,172.035
1196295023,172.035
1196316622,168.721
1196338221,168.721
1196359818,162.426
1196381428,162.426
1196403018,162.426
1196424616,168.721
1196446217,162.426
1196467819,162.426
1196489419,168.721
1196511016,168.721
1196532629,162.426
1196617192,172.535
1196684105,175.68
1196691632,175.68
1196705419,165.824
1196727020,165.673
1196748618,169.885
1196770216,163.775
1196791818,163.775
1196813417,163.175
1196835016,163.175
1196856615,159.375
1196878219,160.776
1196899823,160.656
1196921417,162.655
1196943016,159.056
1196964618,159.056
1196986222,159.37
1197007828,162.269
1197029420,159.37
1197051020,159.37
1197072620,164.866
1197094222,164.866
1197115821,163.866
1197137419,163.866
1197159026,163.866
1197180619,163.866
1197202218,163.866
1197223821,163.866
1197245419,163.866
1197267029,163.866
1197288626,163.866
1197310220,160.371
1197331820,162.942
1197353420,166.154
1197375018,163.542
1197396644,163.542
1197418219,166.443
1197439819,171.354
1197461419,168.184
1197557254,168.143
1197675924,159.238
1197677418,159.238
1197699019,164.996
1197720618,164.096
1197742223,164.096
1197763825,164.096
1197785418,164.096
1197807017,164.096
1197828620,160.338
1197850218,160.338
1197871820,160.338
1197893422,160.338
1197915018,160.338
1197936619,160.338
1197958218,165.096
1197979822,169.501
1198001418,168.443
1198023023,165.744
1198044619,169.857
1198066216,165.144
1198087816,165.144
1198109418,165.144
1198131019,168.494
1198152617,176.802
1198174216,168.494
1198195817,168.494
1198217420,168.494
1198239017,168.494
1198260616,168.494
1198282224,168.494
1198303816,168.494
1198325416,176.802
1198347018,168.494
1198368622,176.802
1198390217,176.802
1198411815,176.802
1198433417,176.802
1198455019,176.802
1198476622,176.802
1198498218,176.802
1198519817,168.494
1198541416,168.494
1198563016,168.494
1198584617,168.494
1198606217,168.494
1198627817,168.494
1198649416,176.802
1198671017,176.802
1198692617,176.802
1198714222,168.594
1198735825,177.66
1198757419,177.66
1198779025,169.307
1198800617,169.307
1198822218,177.308
1198843817,178.401
1198865417,176.107
1198887019,176.428
1198908616,177.996
